This demonstration page uses our WeatherBlox Daily Observations layout. Learn more.

Left ArrowRight Arrow

40.97296, -117.73568

Hourly Observations for August 31, 2022

Temp ( °F °C ) Dew Point ( °F °C ) Humidity (%) Winds ( mph kmh ) Pressure ( in mb ) Visibility ( mi km ) Precip ( " mm )
12:56 am 00:56 Clear 66 18.9 31 -0.6 27 27 SSE 7 11 29.95 1014 10 16 0.00 0.00
1:56 am 01:56 Clear 57 13.9 31 -0.6 37 37 SSE 5 7 29.97 1015 10 16 0.00 0.00
2:56 am 02:56 Clear 56 13.3 32 0 40 40 S 7 11 29.97 1015 10 16 0.00 0.00
3:56 am 03:56 Clear 55 12.8 31 -0.6 40 40 E 3 6 29.98 1015 10 16 0.00 0.00
4:56 am 04:56 Clear 54 12.2 30 -1.1 40 40 ESE 5 7 29.99 1016 10 16 0.00 0.00
5:56 am 05:56 Clear 57 13.9 31 -0.6 37 37 Calm 29.99 1016 10 16 0.00 0.00
6:56 am 06:56 Sunny 56 13.3 31 -0.6 38 38 Calm 30.01 1016 10 16 0.00 0.00
7:56 am 07:56 Sunny 67 19.4 31 -0.6 26 26 WSW 5 7 30.03 1017 10 16 0.00 0.00
8:56 am 08:56 Sunny 76 24.4 33 0.6 21 21 Calm 30.03 1017 10 16 0.00 0.00
9:56 am 09:56 Sunny 85 29.4 33 0.6 16 16 WNW 5 7 30.02 1017 10 16 0.00 0.00
10:56 am 10:56 Sunny 91 32.8 32 0 12 12 VRB 6 9 30.01 1016 10 16 0.00 0.00
11:56 am 11:56 Sunny N/A N/A N/A undefined N/A 30.26 1025 N/A 0.00 0.00
12:56 pm 12:56 Sunny N/A N/A N/A undefined N/A 30.24 1024 N/A 0.00 0.00
1:56 pm 13:56 Sunny N/A N/A N/A undefined N/A 30.22 1023 N/A 0.00 0.00
2:56 pm 14:56 Sunny 99 37.2 33 0.6 10 10 W 17 28 29.94 1014 10 16 0.00 0.00
3:56 pm 15:56 Sunny 99 37.2 33 0.6 10 10 W 14 22 29.92 1013 10 16 0.00 0.00
4:56 pm 16:56 Sunny 98 36.7 33 0.6 10 10 SW 13 20 29.91 1013 10 16 0.00 0.00
5:56 pm 17:56 Sunny 97 36.1 33 0.6 11 11 WSW 9 15 29.91 1013 10 16 0.00 0.00
6:56 pm 18:56 Sunny 92 33.3 34 1.1 13 13 W 6 9 29.92 1013 10 16 0.00 0.00
7:56 pm 19:56 Clear 82 27.8 33 0.6 17 17 Calm 29.92 1013 10 16 0.00 0.00
8:56 pm 20:56 Clear 74 23.3 34 1.1 23 23 Calm 29.94 1014 10 16 0.00 0.00
9:56 pm 21:56 Clear 71 21.7 32 0 24 24 ESE 5 7 29.93 1014 10 16 0.00 0.00
10:56 pm 22:56 Clear 70 21.1 30 -1.1 23 23 Calm 29.92 1013 10 16 0.00 0.00
11:56 pm 23:56 Clear 60 15.6 33 0.6 36 36 SSE 7 11 29.95 1014 10 16 0.00 0.00

Powered by AerisWeather